Regional Weather Roundup
Issued by NWS Kansas City/Pleasant Hill, MO

Home | Current Version | Previous Version | Graphics & Text | Print | Product List | Glossary Off
Versions: 1 2 3 4 5 6 7 8 9 10 11 12 13 14 15 16 17 18 19 20 21 22 23 24 25 26 27 28 29 30 31 32 33 34 35 36 37 38 39 40 41 42 43 44 45 46 47 48 49 50

269
ASUS43 KEAX 031310
RWREAX

WEATHER ROUNDUP FOR EASTERN KANSAS AND NORTHWEST MISSOURI
NATIONAL WEATHER SERVICE KANSAS CITY/PLEASANT HILL MO
700 AM CST SAT DEC 03 2016

KSZ040-057-103>105-MOZ028-029-037-043-031400-
...KANSAS CITY METROPOLITAN AREA...

CITY           SKY/WX    TMP DP  RH WIND       PRES   REMARKS
K.C. INTL      CLOUDY    31  26  82 E7        30.28F WCI  24
K.C. DOWNTOWN  CLOUDY    33  29  85 NE5       30.30S WCI  29
LEES SUMMIT    CLOUDY    34  28  79 E8        30.28F WCI  27
OLATHE - IXD   CLOUDY    37  29  72 E8        30.27F WCI  31
OLATHE - OJC   CLOUDY    35  28  75 NE9       30.27F WCI  28
LAWRENCE       CLOUDY    32  30  92 NE3       30.29F

$$

MOZ001>008-011>017-020>025-030>033-038>040-044>046-053-054-031400-
...NORTHERN AND CENTRAL MISSOURI...

CITY           SKY/WX    TMP DP  RH WIND       PRES   REMARKS
ST. JOSEPH     PTCLDY    23  20  88 CALM      30.31S
MOSBY          CLOUDY    27  27 100 CALM      30.29F
WARRENSBURG    CLOUDY    30  28  93 NE3       30.29S
WHITEMAN AFB   MOCLDY    30  30  99 CALM      30.28F
CLINTON        CLOUDY    32  28  86 CALM      30.28F
SEDALIA        PTCLDY    32  26  78 E5        30.30F WCI  27
WARSAW         NOT AVBL
CHILLICOTHE      N/A     25  24  96 CALM      30.33F
KIRKSVILLE     CLOUDY    26  25  96 NE6       30.32F WCI  19

$$

MOZ041-047>049-056>058-063>065-088>090-097-031400-
...EASTERN AND SOUTHERN MISSOURI...

CITY           SKY/WX    TMP DP  RH WIND       PRES   REMARKS
ST. LOUIS INTL CLOUDY    31  27  85 E3        30.36S
SPIRIT OF STL  MOCLDY    27  26  96 CALM      30.36S
COLUMBIA       CLOUDY    31  27  85 E8        30.30F WCI  23
JEFFERSON CITY PTCLDY    27  25  92 CALM      30.33F
ROLLA          PTCLDY    31  27  85 E7        30.29F WCI  24
OSAGE BEACH    PTCLDY    30  26  85 NE6       30.30F WCI  24
SPRINGFIELD    PTCLDY    43  29  57 SE8       30.23F
BRANSON        CLOUDY    41  32  70 SE8       30.25F
JOPLIN         CLOUDY    45  30  55 SE6       30.24R
WEST PLAINS    PTCLDY    38  31  76 E6        30.29F WCI  33

$$

IAZ060-094-KSZ022-034>040-054-083-096-NEZ052-066-093-031400-
...KANSAS...SOUTHEAST NEBRASKA AND IOWA...

CITY           SKY/WX    TMP DP  RH WIND       PRES   REMARKS
TOPEKA         CLOUDY    31  27  85 CALM      30.29R
MANHATTAN      PTCLDY    32  28  85 NE5       30.27F WCI  27
EMPORIA        CLOUDY    37  28  70 NE8       30.24S WCI  31
CHANUTE        CLOUDY    42  28  57 E9        30.23S
WICHITA        CLOUDY    40  32  73 NE7       30.19F
OMAHA          FOG       24  20  84 NW3       30.29F VSB 1/4
LINCOLN        CLOUDY    24  21  88 CALM      30.28F
FALLS CITY       N/A    N/A N/A N/A MISG      30.29F
LAMONI         CLEAR     25  24  96 CALM      30.31R
DES MOINES     CLOUDY    37  27  67 CALM      30.33F

$$





USA.gov is the U.S. government's official web portal to all federal, state and local government web resources and services.